This is the latest recevied weather packets stored in our database for station/object W5ZYX. If no packets are shown the sender has not sent any weather packets the latest 10 day(s).
| Time | Temp. | Humidity | Pressure | Rain* | Wind** | Luminosity | Snow |
|---|---|---|---|---|---|---|---|
| 1777917678 | 25.56° C | 60% | 1014.5 hPa | 0 mm | - | - | - |
| 1777917338 | 25.56° C | 61% | 1014.7 hPa | 0 mm | - | - | - |
| 1777917038 | 25.56° C | 63% | 1014.9 hPa | 0 mm | - | - | - |
| 1777916752 | 25° C | 62% | 1014.8 hPa | 0 mm | - | - | - |
| 1777916437 | 24.44° C | 61% | 1014.8 hPa | 0 mm | - | - | - |
| 1777916138 | 25° C | 64% | 1014.7 hPa | 0 mm | - | - | - |
| 1777915852 | 24.44° C | 64% | 1014.9 hPa | 0 mm | - | - | - |
| 1777915536 | 24.44° C | 62% | 1015 hPa | 0 mm | - | - | - |
| 1777915236 | 24.44° C | 61% | 1015.1 hPa | 0 mm | - | - | - |
| 1777914952 | 24.44° C | 63% | 1015.1 hPa | 0 mm | - | - | - |
| 1777914639 | 25° C | 61% | 1015.3 hPa | 0 mm | - | - | - |
| 1777914337 | 24.44° C | 65% | 1015.4 hPa | 0 mm | - | - | - |
| 1777914052 | 24.44° C | 66% | 1015.5 hPa | 0 mm | - | - | - |
| 1777913738 | 24.44° C | 64% | 1015.5 hPa | 0 mm | - | - | - |
| 1777913438 | 23.89° C | 65% | 1015.6 hPa | 0 mm | - | - | - |
| 1777913153 | 23.89° C | 65% | 1015.4 hPa | 0 mm | - | - | - |
| 1777912836 | 23.89° C | 64% | 1015.6 hPa | 0 mm | - | - | - |
| 1777912536 | 23.89° C | 64% | 1015.6 hPa | 0 mm | - | - | - |
| 1777912252 | 23.89° C | 65% | 1015.6 hPa | 0 mm | - | - | - |
| 1777911937 | 23.89° C | 64% | 1015.7 hPa | 0 mm | - | - | - |
| 1777911638 | 23.33° C | 66% | 1015.7 hPa | 0 mm | - | - | - |
| 1777911349 | 23.33° C | 65% | 1015.8 hPa | 0 mm | - | - | - |
| 1777911037 | 23.33° C | 67% | 1015.9 hPa | 0 mm | - | - | - |
| 1777910737 | 22.78° C | 66% | 1015.9 hPa | 0 mm | - | - | - |
| 1777910446 | 22.78° C | 64% | 1016 hPa | 0 mm | - | - | - |
* Rain latest hour (hover to see other rain measurements)
** Current wind speed in m/s (hover to see current wind gust speed)